This demonstration page uses our WeatherBlox Daily Observations layout. Learn more.

Left ArrowRight Arrow

Hourly Observations for February 18, 2016

Temp ( °F °C ) Dew Point ( °F °C ) Humidity (%) Winds ( mph kmh ) Pressure ( in mb ) Visibility ( mi km ) Precip ( " mm )
12:15 am 00:15 Clear 39 3.7 32 undefined 77 77 SSE 12 19 29.91 1013 10 16 N/A
12:35 am 00:35 Clear 39 3.8 32 -0.2 75 75 SSE 12 19 29.88 1012 10 16 N/A
12:55 am 00:55 Clear 40 4.4 32 undefined 73 73 SSE 14 22 29.88 1012 10 16 N/A
1:15 am 01:15 Clear 40 4.5 32 undefined 73 73 SSE 14 22 29.83 1010 10 16 N/A
1:35 am 01:35 Clear 40 4.4 32 undefined 73 73 SSE 13 20 29.83 1010 10 16 N/A
1:55 am 01:55 Clear 39 4.1 32 undefined 75 75 SE 12 19 29.83 1010 10 16 N/A
2:15 am 02:15 Clear 39 3.8 32 -0.1 76 76 SE 10 17 29.83 1010 10 16 N/A
2:35 am 02:35 Clear 39 3.7 32 -0.1 76 76 SE 9 15 29.80 1009 10 16 N/A
2:55 am 02:55 Clear 38 3.4 32 undefined 79 79 SSE 9 15 29.83 1010 10 16 N/A
3:15 am 03:15 Clear 39 3.7 32 undefined 77 77 SSE 9 15 29.77 1008 10 16 N/A
3:35 am 03:35 Clear 39 4.1 32 undefined 75 75 SSE 10 17 29.77 1008 10 16 N/A
3:55 am 03:55 Clear 40 4.2 32 0.1 75 75 SSE 10 17 29.77 1008 10 16 N/A
4:15 am 04:15 Clear 40 4.5 32 0.2 74 74 SSE 9 15 29.77 1008 10 16 N/A
4:35 am 04:35 Clear 40 4.6 33 0.3 74 74 SSE 12 19 29.74 1007 10 16 N/A
4:55 am 04:55 Clear 40 4.3 32 0.1 74 74 SSE 9 15 29.74 1007 10 16 N/A
5:15 am 05:15 Clear 38 3.1 32 undefined 80 80 SSE 12 19 29.77 1008 10 16 N/A
5:35 am 05:35 Clear 37 3 32 undefined 81 81 SSE 10 17 29.77 1008 10 16 N/A
5:55 am 05:55 Clear 37 3 32 0.1 81 81 SSE 10 17 29.71 1006 10 16 N/A
6:15 am 06:15 Clear 37 3 32 0.2 82 82 SSE 9 15 29.71 1006 10 16 N/A
6:35 am 06:35 Clear 37 3 32 0.2 82 82 SSE 6 9 29.71 1006 10 16 N/A
6:55 am 06:55 Clear 39 3.7 33 0.8 82 82 S 9 15 29.71 1006 10 16 N/A
7:15 am 07:15 Clear 38 3.5 33 0.7 82 82 S 9 15 29.71 1006 10 16 N/A
7:35 am 07:35 Sunny 39 4 33 0.8 80 80 S 10 17 29.68 1005 10 16 N/A
7:55 am 07:55 Sunny 39 3.8 33 0.8 81 81 S 10 17 29.68 1005 10 16 N/A
8:15 am 08:15 Sunny 39 4.1 34 1.1 81 81 S 10 17 29.68 1005 10 16 N/A
8:35 am 08:35 Sunny 40 4.2 34 1.3 82 82 S 8 13 29.68 1005 10 16 N/A
8:55 am 08:55 Sunny 40 4.5 35 1.5 81 81 S 10 17 29.68 1005 10 16 N/A
9:15 am 09:15 Sunny 41 5.1 35 1.8 79 79 S 9 15 29.68 1005 10 16 N/A
9:35 am 09:35 Sunny 42 5.8 36 2.2 78 78 S 9 15 29.65 1004 10 16 N/A
9:55 am 09:55 Sunny 44 6.7 37 2.5 75 75 S 12 19 29.65 1004 10 16 N/A
10:15 am 10:15 Sunny 47 8.2 37 2.8 69 69 SSW 12 19 29.65 1004 10 16 N/A
10:35 am 10:35 Sunny 48 8.9 37 2.5 65 65 SSW 14 22 29.59 1002 10 16 N/A
10:55 am 10:55 Sunny 48 9.1 35 1.7 60 60 SSW 9 15 29.62 1003 10 16 N/A
11:15 am 11:15 Sunny 49 9.5 35 1.4 57 57 SSW 16 26 29.59 1002 10 16 N/A
11:35 am 11:35 Sunny 50 10 35 1.8 57 57 SW 10 17 29.59 1002 10 16 N/A
11:55 am 11:55 Sunny 51 10.4 35 1.5 54 54 SW 8 13 29.59 1002 10 16 N/A
12:15 pm 12:15 Sunny 51 10.7 36 2.2 56 56 SW 7 11 29.56 1001 10 16 N/A
12:35 pm 12:35 Sunny 54 12.2 36 2.1 50 50 SW 10 17 29.53 1000 10 16 N/A
12:55 pm 12:55 Sunny 55 13 35 1.7 46 46 SW 10 17 29.53 1000 10 16 N/A
1:15 pm 13:15 Sunny 56 13.6 36 2 46 46 SW 9 15 29.50 999 10 16 N/A
1:35 pm 13:35 Sunny 58 14.5 37 2.6 45 45 SW 8 13 29.47 998 10 16 N/A
1:55 pm 13:55 Sunny 61 16.1 35 1.7 38 38 SSW 12 19 29.47 998 10 16 N/A
2:15 pm 14:15 Sunny 62 16.6 36 2 38 38 SW 15 24 29.47 998 10 16 N/A
2:35 pm 14:35 Sunny 63 17.3 36 2.4 37 37 SW 10 17 29.47 998 10 16 N/A
2:55 pm 14:55 Sunny 64 17.5 36 2.3 36 36 SW 12 19 29.44 997 10 16 N/A
3:15 pm 15:15 Sunny 65 18.5 37 2.6 35 35 WSW 8 13 29.44 997 10 16 N/A
3:35 pm 15:35 Sunny 65 18.3 37 2.8 36 36 SW 9 15 29.44 997 10 16 N/A
3:55 pm 15:55 Sunny 65 18.5 37 2.8 35 35 SW 9 15 29.41 996 10 16 N/A
4:15 pm 16:15 Sunny 64 17.8 38 3.6 39 39 WSW 3 6 29.44 997 10 16 N/A
4:35 pm 16:35 Sunny 64 17.7 39 4.1 41 41 N N/A 29.44 997 10 16 N/A
4:55 pm 16:55 Sunny 64 17.7 42 5.4 45 45 N N/A 29.44 997 10 16 N/A
5:15 pm 17:15 Sunny 61 16.1 44 6.4 53 53 N N/A 29.44 997 10 16 N/A
5:35 pm 17:35 Sunny 58 14.7 43 6 56 56 N N/A 29.44 997 10 16 N/A
5:55 pm 17:55 Sunny 56 13.6 42 5.7 59 59 N N/A 29.47 998 10 16 N/A
6:15 pm 18:15 Sunny 51 10.7 41 5 68 68 N N/A 29.44 997 10 16 N/A
6:35 pm 18:35 Clear 52 11 41 5 67 67 N N/A 29.44 997 10 16 N/A
6:55 pm 18:55 Clear 47 8.4 40 4.2 75 75 N N/A 29.47 998 10 16 N/A
7:15 pm 19:15 Clear 48 9.1 40 4.3 72 72 N N/A 29.47 998 10 16 N/A
7:35 pm 19:35 Clear 48 9 40 4.4 73 73 S 3 6 29.47 998 10 16 N/A
7:55 pm 19:55 Clear 46 7.6 39 3.9 78 78 SE 3 6 29.47 998 10 16 N/A
8:15 pm 20:15 Clear 44 6.7 38 3.6 81 81 SE 6 9 29.47 998 10 16 N/A
8:35 pm 20:35 Clear 45 7.3 38 3.6 78 78 SE 6 9 29.47 998 10 16 N/A
8:55 pm 20:55 Clear 47 8.5 39 4 74 74 SE 8 13 29.44 997 10 16 N/A
9:15 pm 21:15 Clear 50 10.1 39 4.1 67 67 SSE 9 15 29.44 997 10 16 N/A
9:35 pm 21:35 Clear 49 9.5 37 3 64 64 SSE 8 13 29.44 997 10 16 N/A
9:55 pm 21:55 Clear 48 8.9 36 2.4 64 64 S 8 13 29.44 997 10 16 N/A
10:15 pm 22:15 Clear 51 10.5 35 1.9 56 56 SSW 8 13 29.41 996 10 16 N/A
10:35 pm 22:35 Clear 53 11.9 35 1.5 49 49 SSW 12 19 29.41 996 10 16 N/A
10:55 pm 22:55 Clear 55 12.7 34 1 45 45 SW 10 17 29.41 996 10 16 N/A
11:15 pm 23:15 Clear 59 14.9 32 0.2 37 37 WSW 17 28 29.38 995 10 16 N/A
11:35 pm 23:35 Clear 59 14.9 32 0.1 37 37 W 31 50 29.41 996 10 16 N/A
11:55 pm 23:55 Clear 58 14.6 33 0.7 39 39 W 29 46 29.44 997 10 16 N/A

Powered by AerisWeather